{"data":{"norad_id":52551,"intl_designator":"2022-051U","name":"STARLINK-3969","alt_names":[],"object_type":"PAYLOAD","status":"ACTIVE","operator":null,"country":"US","launch_date":"2022-05-13","launch_site_code":"AFWTR","launch_vehicle":null,"mission":null,"orbit_class":"UNKNOWN","rcs_meters":null,"size_class":null,"mass_kg":null,"dimensions":null,"purposes":["comms"],"wikipedia_slug":null,"has_3d_model":false,"image_url":null,"decayed_at":null,"tle_current":{"epoch":"2026-05-24T17:12:19.352160Z","epoch_age_seconds":93513,"freshness":"FRESH","line1":"1 52551U 22051U   26144.71689065  .00000248  00000+0  33658-4 0  9999","line2":"2 52551  53.2142 147.8217 0001023  73.9092 286.2013 15.08834013222925","mean_motion":15.08834013,"eccentricity":0.0001023,"inclination_deg":53.2142,"raan_deg":147.8217,"arg_perigee_deg":73.9092,"mean_anomaly_deg":286.2013,"bstar":3.3658e-5,"rev_number":22292,"period_min":95.437933370607,"perigee_km":539.05398785261,"apogee_km":540.46938992435,"semimajor_km":6917.8986888885,"source":"CELESTRAK","updated_at":"2026-05-25T13:38:17.164560Z"}}}